Location: Dackenheim
(49.5215°N, 8.1854°E)
Time: 00:39:22
(UTC+00:00)

Cosmos 1356 Rocket - Pass Details

Date: 19 May 2025
Orbit: 517 x 565 km, 81.2° (Epoch: 23 June)

Event Time Altitude Azimuth Distance (km) Brightness Sun altitude
Exits shadow 20:28:27 14° 154° (SSE) 1,631 5.1 -10.4°
Maximum altitude 20:31:32 34° 93° (E) 948 4.2 -10.7°
Drops below altitude 10° 20:35:15 10° 29° (NNE) 1,861 6.3 -11.1°
Sets 20:37:33 0° 20° (NNE) 2,755 7.3 -11.4°
